"Pseudo-MPEC" for P12pBeL

Created 2026 Sep 5 9:35:08 UT using Find_Orb

Click here for an explanation of pseudo-MPECs

 
 Astrometry: 
     P12pBeL*0C2026 09 04.28952520 58 09.680-26 53 29.03   ~94BZ 20.67wXNEOCPF51
     P12pBeL 0C2026 09 04.30968120 58 03.064-26 53 06.02   ~94BZ 21.81wXNEOCPF51
     P12pBeL 0C2026 09 04.31966320 57 59.725-26 52 54.67   ~94BZ 21.15wXNEOCPF51
     P12pBeL 0C2026 09 04.32969720 57 53.643-26 52 48.20   ~9545 19.98rUNEOCPI41
     P12pBeL 0C2026 09 04.48160920 57 06.070-26 49 29.85   ~94MK 21.36GVNEOCPF52
     P12pBeL 0C2026 09 04.48228720 57 05.853-26 49 29.04   ~94MK 21.24GVNEOCPF52
     P12pBeL |C2026 09 05.01405020 54 25.990-26 37 20.30   ~9515 21.0 GVNEOCP807
     P12pBeL |C2026 09 05.01769020 54 24.770-26 37 15.90   ~9515 21.1 GVNEOCP807
     P12pBeL |C2026 09 05.02133020 54 23.510-26 37 11.20   ~9515 21.3 GVNEOCP807

Station data:
(807) Cerro Tololo Observatory, La Serena  (S30.169133 W70.805900)  Chile.
   Observer R. Holmes. 0.61-m f/6.5 astrograph + CCD.
(F51) Pan-STARRS 1, Haleakala  (N20.707234 W156.255910)  US/Hawaii.
   Observers J. Herman, T. Lowe, P. Minguez, A. Schultz, I. Smith. Measurers
   K. Chambers, T. de Boer, J. Fairlamb, H. Gao, M. Huber, C.-C. Lin, E.
   Magnier, Y. Ramanjooloo, R. Wainscoat, R. Weryk. 1.8-m Ritchey-Chrétien +
   CCD.
(F52) Pan-STARRS 2, Haleakala  (N20.707382 W156.255910)  US/Hawaii.
   Observers J. Herman, T. Lowe, P. Minguez, A. Schultz, I. Smith. Measurers
   K. Chambers, T. de Boer, J. Fairlamb, H. Gao, M. Huber, C.-C. Lin, E.
   Magnier, Y. Ramanjooloo, R. Wainscoat, R. Weryk. 1.8-m Ritchey-Chrétien +
   CCD.
(I41) Palomar Mountain--ZTF  (N33.357336 W116.859780)  US/California.
   Observers B. T. Bolin, Z. T. F. Collaboration. Measurers B. T. Bolin,
   Z.-Y. Lin, F. J. Masci. 1.2-m f/2.4 Schmidt.

Orbital elements:  P12pBeL
   Perihelion 2026 Oct 30.576857 +/- 0.675 TT = 13:50:40.4 (JD 2461344.076857)
Epoch 2026 Sep  5.0 TT = JDT 2461288.5   Earth MOID: 0.0199   Ma: 0.0286
M 337.011605059 +/- 0.9             (J2000 ecliptic)             AutoNEOCP
n   0.413632514 +/- 0.012           Peri.   60.684771 +/- 0.54
a   1.783992136 +/- 0.0345          Node   346.393640 +/- 0.021
e   0.50724780 +/- 0.00951          Incl.    7.413768 +/- 0.020
P   2.383/870.321d         H 24.02  G  0.15   U  9.8
q 0.879066040 +/- 0.000289    Q 2.688918232 +/- 0.069
From 9 observations 2026 Sept. 4-5 (17.6 hr); mean residual 0".12
Residuals in arcseconds: 
260904 F51  .15-  .04+    260904 I41  .15+  .06-    260905 807  .02-  .01+    
260904 F51  .30+  .09+    260904 F52  .04-  .05+    260905 807  .18+  .09-    
260904 F51  .16-  .11-    260904 F52  .02+  .06-    260905 807  .13-  .10+    

Ephemerides (geocentric):
Date (UTC) HH   RA             Dec           delta  r     elong  mag " sig PA
---- --------  ------------   ------------  ------ ------ -----  --- --------
2026 09 05 10  20 52 14.210   -26 28 18.76  .12886 1.1160 144.7 21.2 2.11 103
2026 09 05 11  20 52 00.641   -26 27 19.99  .12863 1.1157 144.7 21.1 2.39 103
2026 09 05 12  20 51 47.036   -26 26 20.87  .12840 1.1154 144.6 21.1 2.69 103
2026 09 05 13  20 51 33.394   -26 25 21.41  .12818 1.1151 144.5 21.1 3.01 103
2026 09 05 14  20 51 19.716   -26 24 21.59  .12795 1.1148 144.4 21.1 3.35 103
2026 09 05 15  20 51 06.000   -26 23 21.43  .12772 1.1145 144.4 21.1 3.70 104
2026 09 05 16  20 50 52.248   -26 22 20.90  .12749 1.1142 144.3 21.1 4.08 104
2026 09 05 17  20 50 38.459   -26 21 20.03  .12727 1.1139 144.2 21.1 4.46 104
2026 09 05 18  20 50 24.632   -26 20 18.80  .12704 1.1136 144.1 21.1 4.87 104
2026 09 05 19  20 50 10.768   -26 19 17.20  .12681 1.1133 144.1 21.1 5.30 104
2026 09 05 20  20 49 56.867   -26 18 15.25  .12659 1.1130 144.0 21.1 5.74 104
2026 09 05 21  20 49 42.928   -26 17 12.93  .12636 1.1127 143.9 21.1 6.20 104
2026 09 05 22  20 49 28.951   -26 16 10.26  .12613 1.1125 143.8 21.1 6.68 105
2026 09 05 23  20 49 14.937   -26 15 07.21  .12591 1.1122 143.7 21.1 7.18 105
2026 09 06 00  20 49 00.884   -26 14 03.80  .12568 1.1119 143.7 21.1 7.70 105
2026 09 06 01  20 48 46.793   -26 13 00.01  .12546 1.1116 143.6 21.1 8.24 105
2026 09 06 02  20 48 32.664   -26 11 55.85  .12523 1.1113 143.5 21.1 8.79 105
2026 09 06 03  20 48 18.496   -26 10 51.32  .12501 1.1110 143.4 21.1 9.37 105
2026 09 06 04  20 48 04.290   -26 09 46.42  .12478 1.1107 143.4 21.1 9.97 105
2026 09 06 05  20 47 50.046   -26 08 41.14  .12456 1.1104 143.3 21.1 10.6 105
2026 09 06 06  20 47 35.762   -26 07 35.47  .12433 1.1101 143.2 21.1 11.2 106
2026 09 06 07  20 47 21.439   -26 06 29.43  .12411 1.1098 143.1 21.1 11.9 106
2026 09 06 08  20 47 07.078   -26 05 23.00  .12388 1.1095 143.0 21.1 12.6 106
2026 09 06 09  20 46 52.677   -26 04 16.19  .12366 1.1092 143.0 21.1 13.2 106
2026 09 06 10  20 46 38.236   -26 03 08.98  .12344 1.1089 142.9 21.1 14.0 106
2026 09 06 11  20 46 23.757   -26 02 01.39  .12321 1.1087 142.8 21.1 14.7 106
2026 09 06 12  20 46 09.237   -26 00 53.41  .12299 1.1084 142.7 21.1 15.5 106
2026 09 06 13  20 45 54.678   -25 59 45.03  .12276 1.1081 142.6 21.1 16.3 106
2026 09 06 14  20 45 40.078   -25 58 36.26  .12254 1.1078 142.6 21.1 17.1 106
2026 09 06 15  20 45 25.439   -25 57 27.09  .12232 1.1075 142.5 21.1 17.9 106
2026 09 06 16  20 45 10.759   -25 56 17.52  .12210 1.1072 142.4 21.1 18.7 106
2026 09 06 17  20 44 56.040   -25 55 07.55  .12187 1.1069 142.3 21.1 19.6 107
2026 09 06 18  20 44 41.279   -25 53 57.18  .12165 1.1066 142.2 21.1 20.5 107
2026 09 06 19  20 44 26.478   -25 52 46.39  .12143 1.1063 142.2 21.1 21.4 107
2026 09 06 20  20 44 11.636   -25 51 35.21  .12121 1.1060 142.1 21.1 22.4 107
2026 09 06 21  20 43 56.753   -25 50 23.61  .12098 1.1057 142.0 21.1 23.3 107
2026 09 06 22  20 43 41.829   -25 49 11.59  .12076 1.1055 141.9 21.1 24.3 107
2026 09 06 23  20 43 26.864   -25 47 59.17  .12054 1.1052 141.8 21.1 25.3 107
2026 09 07 00  20 43 11.857   -25 46 46.32  .12032 1.1049 141.7 21.1 26.3 107
2026 09 07 01  20 42 56.809   -25 45 33.06  .12010 1.1046 141.7 21.1 27.4 107
2026 09 07 02  20 42 41.719   -25 44 19.38  .11988 1.1043 141.6 21.1 28.5 107
2026 09 07 03  20 42 26.587   -25 43 05.27  .11966 1.1040 141.5 21.1 29.6 107
2026 09 07 04  20 42 11.413   -25 41 50.74  .11944 1.1037 141.4 21.1 30.7 107
2026 09 07 05  20 41 56.197   -25 40 35.78  .11922 1.1034 141.3 21.1 31.9 107
2026 09 07 06  20 41 40.939   -25 39 20.39  .11900 1.1031 141.2 21.0 33.1 108
2026 09 07 07  20 41 25.638   -25 38 04.56  .11878 1.1028 141.2 21.0 34.3 108
2026 09 07 08  20 41 10.295   -25 36 48.31  .11856 1.1026 141.1 21.0 35.5 108
2026 09 07 09  20 40 54.909   -25 35 31.61  .11834 1.1023 141.0 21.0 36.8 108